Weather History for Moncks Corner, SC

Change the Weather History Date:

Wednesday, February 19, 2014

  Actual Average (KCHS) Record (KCHS)
Temperature  
Mean Temperature 70 °F 52 °F  
Max Temperature 82 °F 64 °F 83 °F (1956)
Min Temperature 57 °F 41 °F 20 °F (1958)
Degree Days  
Heating Degree Days 0 13  
Month to date heating degree days 272  
Since 1 July heating degree days 1531  
Cooling Degree Days 4 0  
Month to date cooling degree days 0  
Year to date cooling degree days 2  
Growing Degree Days 20 (Base 50)    
Moisture  
Dew Point 53 °F    
Average Humidity 66    
Maximum Humidity 100    
Minimum Humidity 26    
Precipitation  
Precipitation 0.00 in 0.11 in 1.26 in (2012)
Month to date precipitation 2.01  
Year to date precipitation 5.72  
Sea Level Pressure  
Sea Level Pressure 30.07 in    
Wind  
Wind Speed 8 mph (SW)    
Max Wind Speed 17 mph    
Max Gust Speed 24 mph    
Visibility 9 miles    
Events      
T = Trace of Precipitation, MM = Missing Value Source: NWS Daily Summary

Daily Weather History Graph

Daily Weather History Graph

Search for Another Location

Airport:

Trip Planner

Search our weather history database for the weather conditions in past years. The results will help you decide how hot, cold, wet, or windy it might be!

Date:

Astronomy

Feb. 19, 2014 Rise Set
Actual Time 6:59 AM EST 6:08 PM EST
Civil Twilight 6:34 AM EST 6:33 PM EST
Nautical Twilight 6:05 AM EST 7:02 PM EST
Astronomical Twilight 5:36 AM EST 7:31 PM EST
Moon 10:43 PM EST (2/19) 9:20 AM EST (2/19)
Length of Visible Light 11h 59m
Length of Day
11h 09m
Waning Gibbous, 80% of the Moon is Illuminated
Feb 19
Waning Gibbous
Feb 22
Last Quarter
Mar 1
New
Mar 8
First Quarter
Mar 16
Full

Hourly Weather History & Observations

Time (EST) Temp. Dew Point Humidity Pressure Visibility Wind Dir Wind Speed Gust Speed Precip Events Conditions
12:15 AM 57.2 °F 55.4 °F 94% 30.13 in 10.0 mi SSW 5.8 mph - N/A   Clear
12:35 AM 57.2 °F 55.4 °F 94% 30.11 in 7.0 mi South 5.8 mph - N/A   Clear
1:15 AM 59.0 °F 57.2 °F 94% 30.10 in 10.0 mi SSW 5.8 mph - N/A   Clear
1:35 AM 59.0 °F 57.2 °F 94% 30.10 in 7.0 mi SSW 5.8 mph - N/A   Clear
1:55 AM 59.0 °F 57.2 °F 94% 30.09 in 10.0 mi SSW 4.6 mph - N/A   Clear
2:15 AM 59.0 °F 57.2 °F 94% 30.10 in 7.0 mi SSW 4.6 mph - N/A   Clear
2:35 AM 57.2 °F 55.4 °F 94% 30.10 in 10.0 mi SW 3.5 mph - N/A   Clear
2:55 AM 57.2 °F 55.4 °F 94% 30.10 in 7.0 mi SSW 3.5 mph - N/A   Scattered Clouds
3:15 AM 57.2 °F 57.2 °F 100% 30.10 in 7.0 mi SW 3.5 mph - N/A   Scattered Clouds
3:35 AM 57.2 °F 57.2 °F 100% 30.09 in 10.0 mi SSW 5.8 mph - N/A   Scattered Clouds
3:55 AM 57.2 °F 57.2 °F 100% 30.09 in 7.0 mi SSW 5.8 mph - N/A   Scattered Clouds
4:15 AM 57.2 °F 57.2 °F 100% 30.08 in 10.0 mi SW 4.6 mph - N/A   Clear
4:35 AM 57.2 °F 57.2 °F 100% 30.09 in 10.0 mi SW 8.1 mph - N/A   Clear
4:55 AM 59.0 °F 57.2 °F 94% 30.09 in 10.0 mi SW 6.9 mph - N/A   Clear
5:15 AM 59.0 °F 57.2 °F 94% 30.09 in 10.0 mi SW 6.9 mph - N/A   Clear
5:35 AM 59.0 °F 57.2 °F 94% 30.08 in 10.0 mi SW 10.4 mph 16.1 mph N/A   Clear
5:55 AM 60.8 °F 57.2 °F 88% 30.08 in 10.0 mi SW 10.4 mph - N/A   Clear
6:15 AM 60.8 °F 57.2 °F 88% 30.08 in 10.0 mi SW 11.5 mph 17.3 mph N/A   Clear
6:35 AM 60.8 °F 57.2 °F 88% 30.08 in 10.0 mi SW 9.2 mph - N/A   Clear
6:55 AM 60.8 °F 57.2 °F 88% 30.08 in 5.0 mi SW 8.1 mph - N/A   Clear
7:15 AM 60.8 °F 57.2 °F 88% 30.08 in 10.0 mi SW 9.2 mph - N/A   Clear
7:35 AM 59.0 °F 57.2 °F 94% 30.10 in 10.0 mi WSW 8.1 mph - N/A   Clear
7:55 AM 60.8 °F 57.2 °F 88% 30.10 in 10.0 mi SW 8.1 mph - N/A   Clear
8:15 AM 60.8 °F 57.2 °F 88% 30.10 in 7.0 mi SW 9.2 mph - N/A   Clear
8:35 AM 60.8 °F 57.2 °F 88% 30.10 in 7.0 mi SW 10.4 mph - N/A   Clear
8:55 AM 62.6 °F 57.2 °F 82% 30.10 in 10.0 mi SW 10.4 mph - N/A   Clear
9:15 AM 64.4 °F 59.0 °F 83% 30.10 in 10.0 mi SW 10.4 mph - N/A   Clear
9:35 AM 66.2 °F 59.0 °F 78% 30.11 in 7.0 mi SW 10.4 mph 18.4 mph N/A   Clear
9:55 AM 68.0 °F 59.0 °F 73% 30.11 in 10.0 mi SW 8.1 mph - N/A   Clear
10:15 AM 69.8 °F 57.2 °F 64% 30.11 in 7.0 mi WSW 12.7 mph 19.6 mph N/A   Clear
10:35 AM 71.6 °F 57.2 °F 60% 30.11 in 10.0 mi SW 15.0 mph 20.7 mph N/A   Clear
10:55 AM 73.4 °F 57.2 °F 57% 30.11 in 7.0 mi SW 10.4 mph 18.4 mph N/A   Clear
11:15 AM 73.4 °F 57.2 °F 57% 30.10 in 10.0 mi SW 10.4 mph 19.6 mph N/A   Clear
11:35 AM 75.2 °F 55.4 °F 50% 30.09 in 10.0 mi SW 17.3 mph 21.9 mph N/A   Clear
11:55 AM 75.2 °F 53.6 °F 47% 30.08 in 7.0 mi WSW 10.4 mph 21.9 mph N/A   Clear
12:15 PM 78.8 °F 51.8 °F 39% 30.07 in 10.0 mi WSW 17.3 mph 23.0 mph N/A   Clear
12:35 PM 78.8 °F 50.0 °F 36% 30.06 in 10.0 mi WSW 15.0 mph 24.2 mph N/A   Clear
12:55 PM 78.8 °F 50.0 °F 36% 30.05 in 10.0 mi WSW 15.0 mph 24.2 mph N/A   Clear
1:15 PM 80.6 °F 46.4 °F 30% 30.04 in 10.0 mi SW 12.7 mph 20.7 mph N/A   Clear
1:35 PM 80.6 °F 46.4 °F 30% 30.02 in 7.0 mi WSW 13.8 mph 21.9 mph N/A   Clear
1:55 PM 80.6 °F 44.6 °F 28% 30.02 in 10.0 mi West 11.5 mph 21.9 mph N/A   Clear
2:15 PM 80.6 °F 44.6 °F 28% 30.01 in 7.0 mi WSW 10.4 mph 19.6 mph N/A   Clear
2:35 PM 82.4 °F 44.6 °F 26% 30.00 in 10.0 mi WSW 8.1 mph 18.4 mph N/A   Clear
2:55 PM 80.6 °F 44.6 °F 28% 30.00 in 10.0 mi WSW 12.7 mph 21.9 mph N/A   Clear
3:15 PM 80.6 °F 46.4 °F 30% 30.00 in 10.0 mi WSW 16.1 mph 24.2 mph N/A   Clear
3:35 PM 80.6 °F 44.6 °F 28% 30.00 in 10.0 mi WSW 12.7 mph 23.0 mph N/A   Clear
3:55 PM 82.4 °F 46.4 °F 28% 30.00 in 7.0 mi WSW 12.7 mph 20.7 mph N/A   Clear
4:15 PM 80.6 °F 46.4 °F 30% 30.00 in 10.0 mi WSW 13.8 mph 17.3 mph N/A   Clear
4:35 PM 80.6 °F 48.2 °F 32% 30.00 in 10.0 mi WSW 8.1 mph 18.4 mph N/A   Clear
4:55 PM 80.6 °F 50.0 °F 34% 30.00 in 10.0 mi WSW 12.7 mph 19.6 mph N/A   Clear
5:15 PM 80.6 °F 50.0 °F 34% 30.00 in 10.0 mi WSW 9.2 mph 18.4 mph N/A   Clear
5:35 PM 78.8 °F 51.8 °F 39% 30.01 in 10.0 mi WSW 9.2 mph - N/A   Clear
5:55 PM 77.0 °F 51.8 °F 41% 30.02 in 10.0 mi WSW 9.2 mph - N/A   Clear
6:15 PM 75.2 °F 51.8 °F 44% 30.02 in 7.0 mi South 6.9 mph - N/A   Clear
6:35 PM 71.6 °F 51.8 °F 50% 30.03 in 7.0 mi SSW 8.1 mph - N/A   Clear
6:55 PM 71.6 °F 51.8 °F 50% 30.04 in 10.0 mi South 6.9 mph - N/A   Clear
7:15 PM 69.8 °F 51.8 °F 53% 30.05 in 10.0 mi South 6.9 mph - N/A   Clear
7:35 PM 68.0 °F 51.8 °F 56% 30.05 in 7.0 mi SSW 6.9 mph - N/A   Clear
7:55 PM 66.2 °F 51.8 °F 60% 30.06 in 10.0 mi SSW 5.8 mph - N/A   Clear
8:15 PM 66.2 °F 50.0 °F 56% 30.06 in 10.0 mi SSW 5.8 mph - N/A   Clear
8:35 PM 64.4 °F 51.8 °F 64% 30.07 in 10.0 mi SW 3.5 mph - N/A   Clear
8:55 PM 64.4 °F 51.8 °F 64% 30.08 in 10.0 mi SW 4.6 mph - N/A   Clear
9:15 PM 62.6 °F 51.8 °F 68% 30.08 in 10.0 mi SSW 5.8 mph - N/A   Clear
9:35 PM 62.6 °F 51.8 °F 68% 30.08 in 10.0 mi SSW 4.6 mph - N/A   Clear
9:55 PM 62.6 °F 51.8 °F 68% 30.09 in 10.0 mi SW 4.6 mph - N/A   Clear
10:15 PM 62.6 °F 51.8 °F 68% 30.10 in 10.0 mi SW 3.5 mph - N/A   Clear
10:35 PM 62.6 °F 51.8 °F 68% 30.11 in 7.0 mi SSW 3.5 mph - N/A   Clear
10:55 PM 62.6 °F 51.8 °F 68% 30.11 in 10.0 mi SW 4.6 mph - N/A   Clear
11:15 PM 60.8 °F 53.6 °F 77% 30.11 in 10.0 mi SSW 5.8 mph - N/A   Clear
11:55 PM 62.6 °F 55.4 °F 77% 30.12 in 10.0 mi WSW 5.8 mph - N/A   Clear